Location: Madrid
(40.4000°N, 3.6830°W)
Time: 00:11:54
(UTC+01:00)

ISS - Pass Details

Date: 21 February 2020
Orbit: 415 x 422 km, 51.6° (Epoch: 27 February)

Event Time Altitude Azimuth Distance (km) Brightness Sun altitude
Rises 07:24:52 0° 223° (SW) 2,352 -0.3 -7.6°
Reaches altitude 10° 07:26:58 10° 220° (SW) 1,493 -1.3 -7.2°
Maximum altitude 07:30:17 60° 139° (SE) 485 -3.2 -6.6°
Drops below altitude 10° 07:33:37 10° 60° (ENE) 1,506 -0.1 -6.0°
Sets 07:35:44 0° 56° (NE) 2,375 0.9 -5.6°
